Regional Weather Roundup
Issued by NWS Albany, NY

Home | Current Version | Previous Version | Graphics & Text | Print | Product List | Glossary Off
Versions: 1 2 3 4 5 6 7 8 9 10 11 12 13 14 15 16 17 18 19 20 21 22 23 24 25 26 27 28 29 30 31 32 33 34 35 36 37 38 39 40 41 42 43 44 45 46 47 48 49 50

000
ASUS41 KALY 091610
RWRALY

NEW YORK STATE HOURLY WEATHER ROUNDUP
NATIONAL WEATHER SERVICE ALBANY NY
1100 AM EST TUE FEB 09 2016

NOTE: "FAIR" INDICATES FEW OR NO CLOUDS BELOW 12,000 FEET WITH NO
SIGNIFICANT WEATHER AND/OR NO OBSTRUCTIONS TO VISIBILITY.

NYZ032-033-038>043-046>054-057>066-NYZ062>081-091700-
EAST


CITY           SKY/WX    TMP DP  RH WIND       PRES   REMARKS
ALBANY         FLURRIES  25  18  74 SE9       29.67F WCI  15
GLENS FALLS    LGT SNOW  24  19  81 S5        29.67F WCI  18
POUGHKEEPSIE   FLURRIES  27  18  69 CALM      29.65F
NEWBURGH       PTSUNNY   25  21  86 NE6       29.64F WCI  18
MONTGOMERY     CLOUDY    26  20  77 N6        29.63F WCI  19
WHITE PLAINS   MOSUNNY   28  19  69 NW7       29.61F WCI  21
ISLIP          PTSUNNY   29  23  78 NE13      29.61F WCI  19
NEW YORK CITY  PTSUNNY   30  23  75 NE12      29.63F WCI  20
CENTRAL PARK   CLOUDY    31  21  66 NE7       29.64F WCI  24
$$

NYZ005>009-017-018-044>046-055-056-091700-
CENTRAL


CITY           SKY/WX    TMP DP  RH WIND       PRES   REMARKS
FULTON         LGT SNOW  31  26  82 SE5       29.56F WCI  26
SYRACUSE       LGT SNOW  28  26  92 NE7       29.56F FOG     WCI  21
ROME           LGT SNOW  26  21  81 E9        29.61F VSB 1   WCI  17
ELMIRA         CLOUDY    35  29  78 S5        29.53F WCI  31
BINGHAMTON     LGT SNOW  28  24  85 SE8       29.51F FOG     WCI  20
MONTICELLO     CLOUDY    23  18  80 NE6       29.57F WCI  16
$$

NYZ026>034-041>043-091700-
NORTH


CITY           SKY/WX    TMP DP  RH WIND       PRES   REMARKS
WATERTOWN      LGT SNOW  28  23  81 NE6       29.57F WCI  22
FORT DRUM      NOT AVBL
MASSENA        LGT SNOW  21  14  74 NE13      29.67F WCI   9
SARANAC LAKE   LGT SNOW  20  15  81 NE6       29.53S VSB 1   WCI  12
PLATTSBURGH    LGT SNOW  22  17  81 N3        29.67S
$$

NYZ001>004-010>016-019>021-091700-
WEST


CITY           SKY/WX    TMP DP  RH WIND       PRES   REMARKS
NIAGARA FALLS  FLURRIES  37  31  78 SW12      29.52S WCI  29
BUFFALO        FLURRIES  34  31  88 SW10      29.52F WCI  26
DUNKIRK        CLOUDY    35  29  78 SW10      29.54S WCI  27
JAMESTOWN      CLOUDY    30  27  86 SW5       29.49F WCI  25
WELLSVILLE     SNOW      32  29  88 W5        29.48S VSB 1/4 WCI  27
ROCHESTER      PTSUNNY   38  33  82 SW8       29.52F WCI  32
PENN YAN       CLOUDY    36  30  79 S8        29.52F WCI  30
$$

             KEY
       WCI = WIND CHILL INDEX
       VSB = VISIBILITY
       HX  = HEAT INDEX
$$



USA.gov is the U.S. government's official web portal to all federal, state and local government web resources and services.